[[{"header":{"parameterUnit":"m.s-1","parameterCategory":1,"la1":30.2991,"la2":30.254,"lo1":-89.0895,"lo2":-89.0444,"dy":0.0017,"dx":0.0017,"nx":28,"ny":28,"refTime":"2023-09-16T03:00:00:Z","depth":0,"parameterNumber":2,"parameterNumberName":"U-component_of_WINDS"},"data":[0,0,0,0,0,0,0,0,0,0,0,0,0,0,0,0,0,0,0,0,0,0,0,0,0,0,0,0,0,0,0,0,0,0,0,0,0,0,0,0,0,0,0,0,0,0,0,0,0,0,0,0,0,0,0,0,0,0,1.565,1.565,0,1.5667,1.5667,1.5668,1.5654,1.5653,1.5652,1.5652,1.5671,1.5672,1.5673,0,0,0,0,0,0,0,0,0,0,0,0,0,1.5606,1.5607,1.565,1.565,1.5651,1.5667,1.5667,1.5668,1.5654,1.5653,1.5652,1.5652,1.567,1.5672,1.5673,0,0,0,0,0,0,0,0,0,0,0,0,0,1.5624,1.5607,1.565,1.5646,1.5645,1.5667,1.5667,1.5668,1.5654,1.5653,1.5652,1.5651,1.567,1.5671,1.5673,1.5701,0,0,1.5678,1.5678,0,0,0,0,0,0,0,0,1.5623,1.5626,1.5646,1.5646,1.5646,1.5657,1.5659,1.5679,1.5654,1.5651,1.5652,1.5651,1.5667,1.5669,1.5674,1.5701,1.5702,1.5678,1.5679,1.568,1.568,0,0,0,0,0,0,0,1.5622,1.5625,1.5657,1.5646,1.5646,1.5643,1.5644,1.5662,1.5664,1.5651,1.565,1.5652,1.5667,1.5672,1.5674,1.5702,1.5678,1.5679,1.568,1.5681,1.5751,1.5752,0,0,0,0,0,0,1.5621,1.5624,1.5656,1.5657,1.5632,1.5644,1.5646,1.5655,1.5663,1.5664,1.5653,1.5651,1.567,1.5672,1.5675,1.5706,1.568,1.5681,1.5682,1.575,1.5751,1.5752,0,0,0,0,0,0,1.562,1.5624,1.5656,1.564,1.5644,1.5646,1.5656,1.5655,1.5661,1.5665,1.5665,1.5658,1.567,1.5673,1.5694,1.5706,1.5682,1.5683,1.5749,1.5751,1.5752,1.5769,0,0,0,0,0,0,1.5619,1.5624,1.5634,1.5641,1.5645,1.5674,1.5656,1.5656,1.5664,1.5662,1.567,1.5671,1.5669,1.5691,1.5695,1.5708,1.5684,1.5748,1.575,1.5751,1.5767,1.5771,1.5774,0,0,0,0,0,1.5617,1.5639,1.5635,1.5639,1.5658,1.5675,1.5677,1.5675,1.5665,1.5675,1.5677,1.567,1.5705,1.5694,1.5698,1.5711,1.5747,1.5749,1.5751,1.5766,1.577,1.5774,0,0,0,0,0,0,1.5635,1.564,1.5635,1.566,1.5667,1.5673,1.5686,1.568,1.569,1.5688,1.5685,1.5687,1.5709,1.5712,1.57,1.5737,1.5724,1.5727,1.5734,1.5738,1.5741,1.5739,1.5686,0,0,0,0,0,1.5642,1.5655,1.5659,1.568,1.5684,1.5684,1.5691,1.5689,1.5696,1.5699,1.5703,1.571,1.5723,1.5731,1.5743,1.5768,1.5769,1.578,1.5783,1.5786,1.5788,1.58,1.5804,1.5759,1.5759,1.5759,0,0,1.5656,1.566,1.5669,1.5684,1.5689,1.5702,1.5687,1.5702,1.5711,1.5701,1.572,1.5724,1.5732,1.5755,1.5765,1.5759,1.58,1.5788,1.579,1.5791,1.5802,1.5806,1.581,1.576,1.576,1.576,0,0,1.5688,1.5693,1.5711,1.5716,1.5723,1.5723,1.5727,1.5733,1.5734,1.5754,1.5746,1.5757,1.5779,1.5785,1.579,1.5823,1.5816,1.5827,1.5844,1.5855,1.5859,1.5862,1.5872,1.5875,1.5829,1.583,1.583,0,1.5705,1.5724,1.5721,1.5735,1.5741,1.5732,1.5749,1.5755,1.5766,1.577,1.5763,1.5788,1.5794,1.5816,1.5824,1.583,1.5833,1.5825,1.5858,1.5862,1.5864,1.5874,1.5878,1.5831,1.5831,1.583,1.583,0,1.5743,1.5756,1.5769,1.5779,1.5787,1.5803,1.5801,1.581,1.5806,1.5807,1.5826,1.5831,1.5843,1.5849,1.5846,1.5871,1.5866,1.5859,1.5845,1.587,1.5878,1.5882,1.5832,1.5832,1.5831,1.5831,0,0,1.5787,1.5793,1.5798,1.5801,1.5808,1.5818,1.5834,1.5844,1.585,1.5859,1.587,1.5888,1.5881,1.5887,1.5885,1.5896,1.5918,1.5887,1.5887,1.5891,1.5944,1.5948,1.5953,1.5915,1.5915,1.5916,1.5943,0,1.5817,1.5843,1.5839,1.5864,1.5875,1.5866,1.5879,1.5885,1.5886,1.5895,1.5896,1.5908,1.5899,1.5902,1.5912,1.5914,1.5929,1.5912,1.5925,1.5925,1.5921,1.5958,1.5963,1.5988,1.5946,1.5947,1.5947,0,1.5856,1.5864,1.5889,1.5893,1.5897,1.5909,1.5917,1.5927,1.5933,1.5933,1.5939,1.5935,1.5949,1.5936,1.5956,1.5944,1.5949,1.5951,1.5952,1.5952,1.5937,1.5957,1.5996,1.5999,1.5953,1.5953,1.5952,0,1.5883,1.59,1.5917,1.592,1.5925,1.5933,1.5936,1.5941,1.5947,1.5955,1.5958,1.5968,1.5973,1.5981,1.5979,1.597,1.5998,1.5985,1.5997,1.5997,1.6003,1.6002,1.6041,1.6009,1.6009,1.6009,1.6009,0,1.5917,1.5932,1.5928,1.5938,1.5955,1.5951,1.5968,1.5969,1.5973,1.5983,1.5977,1.5987,1.5984,1.5994,1.5993,1.6008,1.6011,1.601,1.601,1.601,1.601,1.6012,1.601,1.601,1.601,1.6009,1.6009,0,1.5949,1.5947,1.5964,1.5967,1.5968,1.598,1.5983,1.5992,1.5992,1.6004,1.6007,1.6007,1.6018,1.6017,1.6029,1.6028,1.6047,1.6045,1.6044,1.6043,1.6055,1.6053,1.6096,1.6101,1.6067,1.6067,1.6067,0,1.5969,1.5981,1.5984,1.599,1.5993,1.6003,1.6008,1.6005,1.6011,1.6017,1.6026,1.6035,1.6043,1.606,1.6061,1.607,1.6068,1.6082,1.6069,1.6068,1.6066,1.6064,1.6065,1.6084,1.6085,1.6085,1.6085,0,1.6006,1.6004,1.6012,1.6019,1.6026,1.6032,1.6037,1.6043,1.604,1.6047,1.6057,1.6063,1.6074,1.6084,1.6092,1.6095,1.6089,1.6089,1.6092,1.6092,1.6091,1.609,1.605,1.6088,1.6088,1.6088,1.6087,1.6087,1.6031,1.604,1.6043,1.6052,1.6056,1.606,1.6069,1.6069,1.6077,1.6086,1.6084,1.6095,1.6099,1.6109,1.6113,1.6121,1.6116,1.6121,1.6122,1.6123,1.6123,1.609,1.6123,1.6123,1.6123,1.6123,1.6123,0,1.6065,1.6067,1.6075,1.6082,1.6089,1.6083,1.6088,1.6094,1.6103,1.6108,1.6115,1.6126,1.6134,1.6136,1.6144,1.615,1.6148,1.6153,1.6151,1.6152,1.6128,1.6124,1.6154,1.6154,1.6154,1.6154,1.6154,1.6154,1.6084,1.6098,1.6096,1.6112,1.6113,1.6123,1.6126,1.613,1.6134,1.6146,1.6153,1.6153,1.6156,1.6164,1.6172,1.6172,1.6175,1.618,1.6179,1.6157,1.6154,1.6151,1.6146,1.6181,1.6181,1.6202,1.6202,1.6202]},{"header":{"parameterUnit":"m.s-1","parameterCategory":1,"la1":30.2991,"la2":30.254,"lo1":-89.0895,"lo2":-89.0444,"dy":0.0017,"dx":0.0017,"nx":28,"ny":28,"refTime":"2023-09-16T03:00:00:Z","depth":0,"parameterNumber":3,"parameterNumberName":"V-component_of_WINDS"},"data":[0,0,0,0,0,0,0,0,0,0,0,0,0,0,0,0,0,0,0,0,0,0,0,0,0,0,0,0,0,0,0,0,0,0,0,0,0,0,0,0,0,0,0,0,0,0,0,0,0,0,0,0,0,0,0,0,0,0,2.1574,2.1573,0,2.1509,2.1509,2.1508,2.1462,2.1462,2.1461,2.1461,2.1392,2.1391,2.1389,0,0,0,0,0,0,0,0,0,0,0,0,0,2.1654,2.1653,2.1574,2.1573,2.1572,2.151,2.1509,2.1508,2.1462,2.1462,2.1461,2.1461,2.1393,2.1391,2.1389,0,0,0,0,0,0,0,0,0,0,0,0,0,2.1607,2.1652,2.1574,2.1542,2.1539,2.151,2.1509,2.1507,2.1462,2.1462,2.1461,2.1461,2.1393,2.1391,2.1389,2.1386,0,0,2.1382,2.1381,0,0,0,0,0,0,0,0,2.161,2.1604,2.1548,2.1544,2.154,2.1493,2.1511,2.1467,2.1462,2.1491,2.1461,2.146,2.1426,2.1421,2.141,2.1383,2.138,2.1382,2.1381,2.138,2.1379,0,0,0,0,0,0,0,2.1613,2.1607,2.1548,2.1547,2.1542,2.153,2.1522,2.1503,2.1462,2.1489,2.1485,2.1478,2.1424,2.1412,2.1408,2.1379,2.1382,2.138,2.1379,2.1378,2.1343,2.1344,0,0,0,0,0,0,2.1622,2.161,2.155,2.1546,2.1574,2.1529,2.1521,2.1509,2.1462,2.1455,2.1479,2.1476,2.1417,2.1411,2.1406,2.1398,2.138,2.1378,2.1376,2.1343,2.1343,2.1344,0,0,0,0,0,0,2.1624,2.1617,2.1553,2.1577,2.1568,2.1528,2.1515,2.1508,2.1496,2.1455,2.1447,2.1475,2.1416,2.1409,2.1391,2.1395,2.1377,2.1374,2.1342,2.1343,2.1344,2.1383,0,0,0,0,0,0,2.1626,2.1618,2.1617,2.1577,2.1567,2.1541,2.1515,2.1507,2.1493,2.1489,2.1449,2.1442,2.1415,2.1394,2.1389,2.1391,2.1373,2.1342,2.1343,2.1343,2.1381,2.1385,2.1388,0,0,0,0,0,2.1629,2.1631,2.1618,2.1611,2.1566,2.1541,2.1535,2.1504,2.1493,2.1492,2.1465,2.1443,2.1395,2.1393,2.1386,2.1388,2.1341,2.1342,2.1343,2.1379,2.1384,2.1388,0,0,0,0,0,0,2.1672,2.1625,2.161,2.1599,2.1574,2.1533,2.1531,2.1511,2.1488,2.1485,2.1447,2.1439,2.1424,2.1404,2.1403,2.1382,2.1365,2.1365,2.1395,2.1399,2.1403,2.1408,2.1371,0,0,0,0,0,2.168,2.1665,2.1625,2.1619,2.1607,2.1571,2.1559,2.1538,2.1511,2.15,2.1472,2.1445,2.1423,2.141,2.1389,2.1378,2.1367,2.1376,2.1379,2.1382,2.1382,2.1373,2.1376,2.1347,2.1347,2.1347,0,0,2.1697,2.1669,2.1662,2.1627,2.1605,2.1589,2.1563,2.1547,2.1534,2.1497,2.1478,2.1457,2.1424,2.141,2.1402,2.1392,2.1388,2.1383,2.1386,2.1384,2.1374,2.1377,2.138,2.1348,2.1347,2.1347,0,0,2.1719,2.1697,2.1689,2.1668,2.1636,2.1612,2.161,2.1571,2.1556,2.1537,2.1507,2.1491,2.1456,2.1433,2.1417,2.1429,2.1408,2.1423,2.1441,2.1433,2.1435,2.1437,2.144,2.1441,2.1423,2.1423,2.1423,0,2.1744,2.172,2.1688,2.1674,2.1658,2.1624,2.1614,2.1595,2.1557,2.1546,2.1537,2.149,2.1466,2.1445,2.1448,2.1436,2.1432,2.1427,2.1437,2.1439,2.144,2.1442,2.1444,2.1425,2.1425,2.1425,2.1425,0,2.1751,2.1734,2.1731,2.1696,2.168,2.1669,2.1634,2.1621,2.16,2.1577,2.1556,2.1526,2.1497,2.149,2.147,2.1465,2.146,2.1445,2.1428,2.1445,2.1447,2.1448,2.1428,2.1427,2.1427,2.1426,0,0,2.1798,2.1745,2.1744,2.1727,2.1688,2.1674,2.166,2.1632,2.1622,2.1596,2.1582,2.1552,2.1537,2.1519,2.1495,2.1488,2.1498,2.1473,2.1471,2.1478,2.1489,2.1501,2.1503,2.1483,2.1483,2.1483,2.1491,0,2.1814,2.1788,2.1758,2.1742,2.1726,2.1692,2.1679,2.1653,2.1631,2.1612,2.1586,2.1565,2.1547,2.1535,2.1527,2.1499,2.1499,2.1498,2.1469,2.1468,2.1478,2.1504,2.1516,2.1526,2.1492,2.1492,2.1492,0,2.1829,2.1805,2.1788,2.1749,2.1741,2.1731,2.1702,2.1685,2.1654,2.1637,2.1616,2.1591,2.1573,2.1558,2.1531,2.1531,2.1517,2.1501,2.1501,2.1497,2.1481,2.1499,2.1528,2.1529,2.1493,2.1493,2.1493,0,2.1864,2.1828,2.1813,2.1799,2.1754,2.1747,2.1728,2.1696,2.1681,2.1655,2.1644,2.1616,2.1601,2.1579,2.1546,2.1539,2.1523,2.1505,2.1507,2.1508,2.1505,2.1506,2.1531,2.1497,2.1497,2.1497,2.1497,0,2.1884,2.1875,2.1828,2.1818,2.1806,2.1771,2.1759,2.1736,2.1708,2.1692,2.1661,2.1647,2.1605,2.1585,2.1559,2.154,2.1533,2.1519,2.1512,2.1521,2.1523,2.1511,2.151,2.1498,2.1498,2.1498,2.1497,0,2.1922,2.189,2.1871,2.183,2.1819,2.1811,2.1775,2.1763,2.1738,2.1719,2.1712,2.1672,2.1647,2.1612,2.1576,2.1558,2.1542,2.1532,2.1553,2.1549,2.1553,2.1553,2.1571,2.1571,2.1538,2.1539,2.1539,0,2.1937,2.1929,2.1886,2.1874,2.1856,2.1836,2.182,2.1785,2.1769,2.1732,2.1725,2.1697,2.1673,2.1634,2.1601,2.1572,2.1561,2.1569,2.1556,2.1565,2.156,2.156,2.1559,2.1572,2.1573,2.1573,2.1574,0,2.1966,2.195,2.1929,2.1902,2.1884,2.1861,2.1836,2.1827,2.1786,2.177,2.1744,2.1725,2.1688,2.1661,2.1628,2.1606,2.1582,2.1578,2.1577,2.1586,2.1598,2.1591,2.1561,2.1578,2.1577,2.1577,2.1577,2.1577,2.1992,2.1982,2.1951,2.1928,2.1905,2.1883,2.1869,2.1843,2.1821,2.1789,2.1768,2.1743,2.171,2.1664,2.1643,2.1621,2.1612,2.161,2.161,2.161,2.1613,2.1602,2.1615,2.1615,2.1615,2.1615,2.1614,0,2.2019,2.1997,2.1976,2.1942,2.1923,2.1904,2.1875,2.186,2.1839,2.181,2.1787,2.1757,2.1729,2.1694,2.1664,2.1653,2.1641,2.1646,2.1646,2.1642,2.1623,2.1627,2.1656,2.1656,2.1656,2.1656,2.1656,2.1656,2.203,2.2013,2.1994,2.1964,2.1942,2.1917,2.1902,2.188,2.1858,2.1825,2.1803,2.178,2.1748,2.1715,2.1689,2.1678,2.1668,2.1677,2.1663,2.1647,2.1643,2.1639,2.1643,2.1675,2.1675,2.1683,2.1683,2.1683]}]]